This is the latest recevied weather packets stored in our database for station/object KB7STN. If no packets are shown the sender has not sent any weather packets the latest 10 day(s).
| Time | Temp. | Humidity | Pressure | Rain* | Wind** | Luminosity | Snow |
|---|---|---|---|---|---|---|---|
| 1777558349 | 9.44° C | 54% | 1013.1 hPa | 0 mm | - | - | - |
| 1777558049 | 8.89° C | 54% | 1013.1 hPa | 0 mm | - | - | - |
| 1777557749 | 8.89° C | 56% | 1013.1 hPa | 0 mm | - | - | - |
| 1777557449 | 8.33° C | 57% | 1013.1 hPa | 0 mm | - | - | - |
| 1777557149 | 7.78° C | 59% | 1013 hPa | 0 mm | - | - | - |
| 1777556849 | 7.22° C | 61% | 1013 hPa | 0 mm | - | - | - |
| 1777556549 | 6.67° C | 63% | 1013 hPa | 0 mm | - | - | - |
| 1777556249 | 6.11° C | 64% | 1013 hPa | 0 mm | - | - | - |
| 1777555949 | 6.11° C | 64% | 1013 hPa | 0 mm | - | - | - |
| 1777555649 | 5.56° C | 65% | 1013 hPa | 0 mm | - | - | - |
| 1777555349 | 5.56° C | 66% | 1012.9 hPa | 0 mm | - | - | - |
| 1777555049 | 5° C | 66% | 1012.8 hPa | 0 mm | - | - | - |
| 1777554749 | 5° C | 66% | 1012.8 hPa | 0 mm | - | - | - |
| 1777554449 | 5° C | 66% | 1012.8 hPa | 0 mm | - | - | - |
| 1777554149 | 5° C | 65% | 1012.8 hPa | 0 mm | - | - | - |
| 1777553849 | 5° C | 64% | 1012.6 hPa | 0 mm | - | - | - |
| 1777553549 | 5° C | 64% | 1012.7 hPa | 0 mm | - | - | - |
| 1777553249 | 5° C | 64% | 1012.6 hPa | 0 mm | - | - | - |
| 1777552949 | 5° C | 63% | 1012.7 hPa | 0 mm | - | - | - |
| 1777552649 | 5° C | 62% | 1012.8 hPa | 0 mm | - | - | - |
| 1777552349 | 5° C | 62% | 1012.7 hPa | 0 mm | - | - | - |
| 1777552049 | 5° C | 62% | 1012.7 hPa | 0 mm | - | - | - |
| 1777551749 | 5° C | 62% | 1012.7 hPa | 0 mm | - | - | - |
| 1777551449 | 5° C | 62% | 1012.7 hPa | 0 mm | - | - | - |
| 1777551149 | 5° C | 62% | 1012.7 hPa | 0 mm | - | - | - |
* Rain latest hour (hover to see other rain measurements)
** Current wind speed in m/s (hover to see current wind gust speed)